Regional Weather Roundup
Issued by NWS

Home | Current Version | Previous Version | Graphics & Text | Print | Product List | Glossary On
Versions: 1 2 3 4 5 6 7 8 9 10 11 12 13 14 15 16 17 18 19 20 21 22 23 24 25 26 27 28 29 30 31 32 33 34 35 36 37 38 39 40 41 42 43 44 45 46 47 48 49 50
000
ASUS45 KPSR 220410
RWRAZ

ARIZONA HOURLY REGIONAL WEATHER ROUNDUP
NATIONAL WEATHER SERVICE PHOENIX AZ
900 PM MST FRI JUL 21 2017

NOTE: FAIR INDICATES FEW OR NO CLOUDS BELOW 12,000 FEET WITH NO
SIGNIFICANT WEATHER AND/OR OBSTRUCTIONS TO VISIBILITY.

AZZ001>003-036-220500-
NORTHWEST ARIZONA

CITY           SKY/WX    TMP DP  RH WIND       PRES   REMARKS
BULLHEAD CITY  CLEAR    106  54  17 S15       29.73R HX 104
KINGMAN        CLEAR     86  54  33 S7        30.00R
$$

AZZ004>008-015-016-018-220500-
NORTH CENTRAL ARIZONA

CITY           SKY/WX    TMP DP  RH WIND       PRES   REMARKS
GRAND CANYON   PTCLDY    68  57  68 S3        30.27R
WILLIAMS       MOCLDY    63  59  88 S7        30.28R
PRESCOTT       MOCLDY    70  64  81 CALM      30.16R
FLAGSTAFF      CLOUDY    59  58  96 CALM      30.30R
PAYSON         MOCLDY    66  64  94 N3        30.18R
PAGE           PTCLDY    86  53  32 CALM      30.05R
$$

AZZ009>014-017-220500-
NORTHEAST ARIZONA

CITY           SKY/WX    TMP DP  RH WIND       PRES   REMARKS
WINSLOW        MOCLDY    75  58  55 NW6       30.13R
SAINT JOHNS    HVY RAIN  68  61  78 S7        30.18R
WINDOW ROCK    CLOUDY    71  53  52 CALM      30.26R
SHOW LOW       CLOUDY    64  57  77 S6        30.25R
$$

AZZ540-542>544-546-548-220500-
GREATER PHOENIX AREA

CITY           SKY/WX    TMP DP  RH WIND       PRES   REMARKS
PHOENIX        PTCLDY    91  64  40 E12       29.81R
BUCKEYE        CLOUDY    88  66  48 NW17G24   29.83R
LUKE AFB       MOCLDY    94  69  44 N6        29.81R
DEER VALLEY    PTCLDY    86  70  58 E8        29.84R
SCOTTSDALE     PTCLDY    86  69  56 SE5       29.86R
MESA-GATEWAY     N/A     84  70  61 E7        29.87R
CHANDLER       CLEAR     88  66  48 NE8       29.83R
$$

AZZ539-553-220500-
SOUTHWEST MARICOPA COUNTY AND PINAL COUNTY

CITY           SKY/WX    TMP DP  RH WIND       PRES   REMARKS
CASA GRANDE    MOCLDY    89  67  47 E12       29.86R
GILA BEND      FAIR      97  62  30 S17       29.78R
$$

AZZ503-504-507>509-220500-
SOUTHEAST ARIZONA

CITY           SKY/WX    TMP DP  RH WIND       PRES   REMARKS
TUCSON         MOCLDY    80  68  66 SE13      30.00R
DAVIS-MONTHAN  MOCLDY    78  67  69 SE13      29.99R
NOGALES        MOCLDY    72  70  93 CALM      30.09R
SIERRA VISTA   MOCLDY    72  65  78 S3        30.15R
DOUGLAS        MOCLDY    73  67  81 S5        30.10R
SAFFORD        PTCLDY    77  67  71 N6        29.99R
$$

AZZ532-220500-
SOUTHWEST ARIZONA

CITY           SKY/WX    TMP DP  RH WIND       PRES   REMARKS
YUMA           CLEAR     96  58  27 S9        29.76R
$$

CAZ041-043-047-048-061-525>527-560>570-220500-
SOUTHERN CALIFORNIA

CITY           SKY/WX    TMP DP  RH WIND       PRES   REMARKS
DOWNTOWN L.A.  CLEAR     71  63  75 CALM      29.88R
L.A. AIRPORT   PTCLDY    68  64  87 W9        29.89R
SAN DIEGO      PTCLDY    72  64  76 NW7       29.92R
BURBANK        CLEAR     74  59  59 SE8       29.89R
ONTARIO        PTCLDY    77  62  59 SW12      29.89R
RIVERSIDE      CLEAR     77  61  57 W8        29.89R
PALM SPRINGS   CLEAR     99  48  17 NW16      29.76R
EL CENTRO NAS  CLEAR     96  60  30 SE12      29.74R
IMPERIAL       MOCLDY    97  63  32 SE12      29.72R
BLYTHE         PTCLDY   102  62  26 S15       29.75R HX 104
NEEDLES        CLEAR    105  56  19 SW13      29.76R HX 104
$$

NVZ020-UTZ003-220500-
SOUTHERN NEVADA-UTAH

CITY           SKY/WX    TMP DP  RH WIND       PRES   REMARKS
LAS VEGAS      PTCLDY   100  43  14 SW9       29.83R
SALT LAKE CITY PTCLDY    88  51  28 CALM      30.00R
$$

NMZ009-TXZ055-220500-
NEW MEXICO-WEST TEXAS

CITY           SKY/WX    TMP DP  RH WIND       PRES   REMARKS
ALBUQUERQUE    PTCLDY    80  51  36 S10       30.15R
EL PASO        CLOUDY    77  65  66 E7        30.08R
$$


........................KEY........................
SKY/WX - SKY CONDITION/WEATHER
TMP    - TEMPERATURE IN FAHRENHEIT
DP     - DEW POINT IN FAHRENHEIT
RH     - RELATIVE HUMIDITY IN PERCENT
WIND   - DIRECTION AND SPEED IN MILES PER HOUR (MPH)
VRB    - VARIABLE WIND DIRECTION
PRES   - MEAN SEA LEVEL PRESSURE IN INCHES OF MERCURY
         F - FALLING PRESSURE   R - RISING PRESSURE
         S - STEADY PRESSURE
VSB    - VISIBILITY IN MILES
HX     - HEAT INDEX IN FAHRENHEIT
WCI    - WIND CHILL INDEX IN FAHRENHEIT
TC     - TEMPERATURE IN CELSIUS WHICH IS ALSO KNOWN AS
         TEMPERATURE IN CENTIGRADE
AFB    - AIR FORCE BASE
         LUKE AFB IS LUKE AIR FORCE BASE
         DAVIS-MONTHAN IS DAVIS-MONTHAN AIR FORCE BASE
NAS    - NAVAL AIR STATION
         EL CENTRO NAS IS EL CENTRO NAVAL AIR STATION
N/A    - NOT AVAILABLE




USA.gov is the U.S. government's official web portal to all federal, state and local government web resources and services.